[[{"header":{"parameterUnit":"m.s-1","parameterCategory":1,"la1":30.2991,"la2":30.254,"lo1":-89.0895,"lo2":-89.0444,"dy":0.0017,"dx":0.0017,"nx":28,"ny":28,"refTime":"2023-08-06T21:00:00:Z","depth":0,"parameterNumber":2,"parameterNumberName":"U-component_of_WINDS"},"data":[0,0,0,0,0,0,0,0,0,0,0,0,0,0,0,0,0,0,0,0,0,0,0,0,0,0,0,0,0,0,0,0,0,0,0,0,0,0,0,0,0,0,0,0,0,0,0,0,0,0,0,0,0,0,0,0,0,0,4.7268,4.7269,0,4.7362,4.7364,4.7365,4.7326,4.7324,4.7322,4.732,4.7419,4.7423,4.7428,0,0,0,0,0,0,0,0,0,0,0,0,0,4.7057,4.7061,4.7268,4.7269,4.727,4.7362,4.7364,4.7365,4.7327,4.7324,4.7321,4.7319,4.7417,4.7423,4.7428,0,0,0,0,0,0,0,0,0,0,0,0,0,4.7149,4.7062,4.7268,4.7262,4.7263,4.7362,4.7364,4.7365,4.7327,4.7324,4.7321,4.7318,4.7415,4.7422,4.7429,4.754,0,0,4.7451,4.7454,0,0,0,0,0,0,0,0,4.7144,4.7157,4.7262,4.7263,4.7264,4.7329,4.7325,4.7424,4.7328,4.7303,4.732,4.7316,4.7392,4.7401,4.7426,4.7544,4.7549,4.7451,4.7456,4.7459,4.7461,0,0,0,0,0,0,0,4.7138,4.7153,4.7305,4.7264,4.7265,4.7256,4.7265,4.7344,4.7365,4.7305,4.7302,4.7314,4.7392,4.7419,4.7428,4.755,4.7451,4.7457,4.7462,4.7465,4.7765,4.7769,0,0,0,0,0,0,4.7131,4.7148,4.7302,4.7308,4.7194,4.7262,4.7273,4.7312,4.7364,4.7369,4.7317,4.7312,4.7409,4.742,4.7431,4.7564,4.7459,4.7465,4.7469,4.7761,4.7766,4.777,0,0,0,0,0,0,4.7127,4.7145,4.7298,4.7227,4.7246,4.727,4.7313,4.7315,4.7342,4.7373,4.7377,4.7341,4.7406,4.7421,4.7513,4.7567,4.7468,4.7475,4.7757,4.7763,4.7768,4.7831,0,0,0,0,0,0,4.7121,4.7144,4.7185,4.7229,4.725,4.7378,4.7317,4.7319,4.7355,4.7349,4.7396,4.7401,4.7405,4.7503,4.752,4.7575,4.748,4.7752,4.776,4.7766,4.7825,4.7839,4.785,0,0,0,0,0,4.7113,4.72,4.7188,4.7207,4.7303,4.7382,4.7394,4.7396,4.7359,4.7402,4.7421,4.74,4.7559,4.7512,4.7532,4.759,4.7749,4.7757,4.7766,4.7819,4.7836,4.785,0,0,0,0,0,0,4.7163,4.7205,4.7192,4.7295,4.7335,4.7375,4.7428,4.7414,4.7465,4.7458,4.7459,4.747,4.7565,4.7586,4.7534,4.77,4.7648,4.7661,4.7682,4.7698,4.7711,4.7704,4.7486,0,0,0,0,0,4.7186,4.7246,4.728,4.7367,4.7388,4.7405,4.7439,4.7437,4.7479,4.7496,4.7522,4.7564,4.7623,4.7662,4.7718,4.7828,4.7838,4.7877,4.789,4.7901,4.7911,4.7971,4.7989,4.7798,4.7798,4.7797,0,0,4.7234,4.7264,4.7302,4.7378,4.7409,4.7471,4.7419,4.7488,4.7534,4.7506,4.7594,4.7615,4.7662,4.7763,4.7809,4.7784,4.7967,4.7911,4.7919,4.7925,4.7982,4.8,4.8016,4.7803,4.7802,4.7801,0,0,4.7353,4.7382,4.7458,4.749,4.7537,4.7548,4.7566,4.7609,4.7621,4.771,4.769,4.7746,4.7848,4.7882,4.7913,4.8046,4.8028,4.8064,4.8132,4.819,4.8205,4.8219,4.8266,4.8283,4.8075,4.8075,4.8076,0,4.7407,4.75,4.75,4.757,4.7604,4.7581,4.7659,4.769,4.7753,4.7778,4.7749,4.7876,4.7906,4.8015,4.8048,4.8073,4.8095,4.8059,4.8203,4.8216,4.8229,4.8274,4.8292,4.8079,4.8079,4.8079,4.8078,0,4.7564,4.7629,4.7685,4.7746,4.7786,4.786,4.7872,4.7913,4.7908,4.7922,4.8013,4.8048,4.8111,4.8137,4.8133,4.8246,4.8229,4.8202,4.815,4.8251,4.8294,4.8311,4.8085,4.8084,4.8083,4.8082,0,0,4.7716,4.7777,4.7797,4.7825,4.7875,4.7926,4.7999,4.806,4.8095,4.814,4.8201,4.8289,4.8264,4.8299,4.8298,4.835,4.8453,4.8316,4.8317,4.834,4.858,4.86,4.862,4.8442,4.8445,4.8448,4.8576,0,4.7839,4.7966,4.7969,4.8086,4.8146,4.8126,4.819,4.8228,4.8243,4.8297,4.8314,4.8376,4.8339,4.836,4.841,4.843,4.8501,4.8421,4.85,4.8502,4.8488,4.8643,4.8664,4.8783,4.8593,4.8596,4.8598,0,4.8,4.8049,4.8172,4.8214,4.8239,4.8296,4.8353,4.8404,4.8448,4.8455,4.8495,4.8487,4.8562,4.8508,4.8612,4.8557,4.859,4.8605,4.861,4.8617,4.8556,4.8654,4.8822,4.8839,4.8624,4.8622,4.862,0,4.8099,4.8196,4.8282,4.8306,4.8357,4.8398,4.8422,4.8461,4.8498,4.8548,4.8572,4.863,4.8662,4.8708,4.8716,4.8676,4.8821,4.8767,4.8829,4.8829,4.886,4.8858,4.9035,4.8882,4.8882,4.8881,4.8881,0,4.8236,4.8312,4.8327,4.838,4.8465,4.8468,4.8552,4.8572,4.8608,4.8665,4.8651,4.8705,4.8713,4.8769,4.8777,4.8862,4.8876,4.8885,4.8886,4.8886,4.8885,4.8907,4.8899,4.8886,4.8885,4.8884,4.8883,0,4.836,4.8374,4.8466,4.8507,4.8519,4.858,4.8615,4.8666,4.8681,4.8753,4.877,4.8793,4.8858,4.8871,4.8949,4.8954,4.9055,4.9048,4.904,4.9039,4.9101,4.9095,4.9298,4.9325,4.9154,4.9156,4.9157,0,4.8447,4.8505,4.8552,4.8589,4.8614,4.8674,4.8711,4.8717,4.8756,4.881,4.8855,4.8919,4.897,4.9076,4.91,4.9159,4.9153,4.922,4.9162,4.916,4.9154,4.915,4.9156,4.9231,4.9233,4.9235,4.9236,0,4.8599,4.8603,4.8657,4.8714,4.8758,4.8804,4.8846,4.8878,4.8889,4.8934,4.9001,4.9041,4.912,4.9183,4.9243,4.9268,4.9254,4.9254,4.9272,4.9272,4.9265,4.9269,4.907,4.9249,4.9248,4.9247,4.9246,4.9246,4.8707,4.8757,4.8799,4.886,4.8892,4.8933,4.8983,4.9003,4.9058,4.9123,4.9123,4.9196,4.9238,4.9316,4.9345,4.9402,4.9381,4.9407,4.9413,4.9419,4.9425,4.9256,4.9413,4.9413,4.9413,4.9412,4.9412,0,4.8858,4.8883,4.8939,4.9,4.9048,4.903,4.9077,4.9119,4.9183,4.9223,4.9274,4.9351,4.9412,4.9441,4.9503,4.9543,4.9538,4.9559,4.9556,4.9562,4.944,4.9419,4.9562,4.9562,4.9562,4.9562,4.9562,4.9562,4.8942,4.9027,4.9036,4.9137,4.9162,4.9233,4.9261,4.9298,4.9331,4.9417,4.9468,4.9486,4.9522,4.9586,4.9642,4.9649,4.9672,4.9696,4.97,4.9586,4.957,4.9556,4.9536,4.9701,4.9701,4.9816,4.9817,4.9818]},{"header":{"parameterUnit":"m.s-1","parameterCategory":1,"la1":30.2991,"la2":30.254,"lo1":-89.0895,"lo2":-89.0444,"dy":0.0017,"dx":0.0017,"nx":28,"ny":28,"refTime":"2023-08-06T21:00:00:Z","depth":0,"parameterNumber":3,"parameterNumberName":"V-component_of_WINDS"},"data":[0,0,0,0,0,0,0,0,0,0,0,0,0,0,0,0,0,0,0,0,0,0,0,0,0,0,0,0,0,0,0,0,0,0,0,0,0,0,0,0,0,0,0,0,0,0,0,0,0,0,0,0,0,0,0,0,0,0,1.53,1.53,0,1.5329,1.5329,1.533,1.5328,1.5327,1.5327,1.5326,1.5355,1.5357,1.5358,0,0,0,0,0,0,0,0,0,0,0,0,0,1.5241,1.5242,1.53,1.53,1.53,1.5329,1.5329,1.533,1.5328,1.5327,1.5327,1.5326,1.5355,1.5356,1.5358,0,0,0,0,0,0,0,0,0,0,0,0,0,1.5268,1.5242,1.53,1.5303,1.5304,1.5329,1.5329,1.533,1.5328,1.5327,1.5327,1.5326,1.5355,1.5356,1.5358,1.5382,0,0,1.5363,1.5364,0,0,0,0,0,0,0,0,1.5266,1.527,1.5302,1.5303,1.5303,1.5324,1.5319,1.5347,1.5328,1.5319,1.5326,1.5326,1.5345,1.5348,1.5355,1.5383,1.5384,1.5364,1.5365,1.5365,1.5366,0,0,0,0,0,0,0,1.5264,1.5269,1.5311,1.5303,1.5303,1.5302,1.5306,1.5324,1.5335,1.5319,1.5319,1.5323,1.5346,1.5353,1.5355,1.5385,1.5364,1.5365,1.5366,1.5367,1.5432,1.5433,0,0,0,0,0,0,1.5262,1.5267,1.531,1.5312,1.5283,1.5304,1.5307,1.5318,1.5335,1.5337,1.5323,1.5323,1.535,1.5353,1.5356,1.5384,1.5365,1.5367,1.5368,1.5432,1.5432,1.5433,0,0,0,0,0,0,1.5261,1.5266,1.5309,1.529,1.5295,1.5306,1.5318,1.5319,1.5326,1.5338,1.534,1.5329,1.535,1.5354,1.5375,1.5385,1.5368,1.5369,1.5431,1.5432,1.5433,1.5441,0,0,0,0,0,0,1.5259,1.5265,1.5275,1.529,1.5296,1.5328,1.5318,1.532,1.533,1.5329,1.5344,1.5346,1.535,1.5373,1.5377,1.5387,1.5371,1.543,1.5431,1.5432,1.544,1.5442,1.5444,0,0,0,0,0,1.5257,1.5276,1.5275,1.5281,1.5308,1.5329,1.5332,1.5337,1.533,1.534,1.5347,1.5345,1.5383,1.5375,1.538,1.5391,1.5429,1.5431,1.5432,1.5439,1.5442,1.5444,0,0,0,0,0,0,1.5262,1.5278,1.5278,1.5303,1.5314,1.5328,1.534,1.534,1.5353,1.5352,1.5357,1.536,1.5381,1.5388,1.5378,1.5414,1.5405,1.5408,1.5409,1.5411,1.5413,1.5411,1.5372,0,0,0,0,0,1.5266,1.5282,1.5295,1.5315,1.5321,1.533,1.5339,1.5341,1.5353,1.5358,1.5367,1.5379,1.5393,1.5403,1.5417,1.5441,1.5443,1.5451,1.5453,1.5454,1.5456,1.5468,1.5471,1.5438,1.5438,1.5438,0,0,1.5275,1.5286,1.5295,1.5317,1.5326,1.5341,1.5334,1.5351,1.5362,1.5361,1.5381,1.5388,1.5401,1.5423,1.5433,1.543,1.5466,1.5456,1.5458,1.5459,1.547,1.5473,1.5476,1.5439,1.5439,1.5439,0,0,1.5298,1.5308,1.5326,1.5336,1.535,1.5355,1.5359,1.5373,1.5377,1.5398,1.5397,1.541,1.5435,1.5444,1.5452,1.5477,1.5476,1.5482,1.5493,1.5505,1.5507,1.5509,1.5518,1.5521,1.5484,1.5484,1.5484,0,1.5307,1.5331,1.5335,1.5352,1.5361,1.536,1.5378,1.5387,1.5405,1.541,1.5406,1.5437,1.5446,1.5469,1.5475,1.5482,1.5486,1.548,1.5506,1.5509,1.5511,1.5519,1.5522,1.5485,1.5484,1.5484,1.5484,0,1.5341,1.5357,1.5369,1.5386,1.5397,1.5414,1.542,1.543,1.5431,1.5436,1.5457,1.5467,1.5483,1.5489,1.549,1.5512,1.5509,1.5505,1.5497,1.5515,1.5522,1.5525,1.5485,1.5485,1.5485,1.5485,0,0,1.5369,1.5388,1.5392,1.5399,1.5414,1.5427,1.5443,1.5458,1.5466,1.5478,1.5491,1.5512,1.5508,1.5517,1.5519,1.553,1.5548,1.5525,1.5525,1.5528,1.5572,1.5574,1.5577,1.5547,1.5547,1.5548,1.557,0,1.5393,1.5423,1.5427,1.5453,1.5467,1.5466,1.548,1.549,1.5495,1.5508,1.5513,1.5528,1.5522,1.5527,1.5537,1.5543,1.5556,1.5542,1.5558,1.5559,1.5555,1.5581,1.5584,1.5605,1.5573,1.5574,1.5574,0,1.5426,1.5439,1.5466,1.5478,1.5484,1.5497,1.551,1.5522,1.5533,1.5536,1.5546,1.5546,1.5562,1.5553,1.5575,1.5565,1.5571,1.5575,1.5576,1.5578,1.5567,1.5583,1.5612,1.5615,1.5579,1.5578,1.5578,0,1.5443,1.5467,1.5486,1.5492,1.5507,1.5515,1.5522,1.5532,1.5541,1.5553,1.5558,1.5571,1.5579,1.5588,1.5592,1.5586,1.5613,1.5605,1.5615,1.5615,1.5621,1.5621,1.5651,1.5626,1.5626,1.5626,1.5626,0,1.547,1.5486,1.5494,1.5505,1.5523,1.5527,1.5545,1.555,1.556,1.5572,1.5572,1.5583,1.5588,1.5599,1.5602,1.5619,1.5623,1.5625,1.5625,1.5625,1.5624,1.5629,1.5628,1.5627,1.5627,1.5627,1.5627,0,1.5492,1.5498,1.5518,1.553,1.5533,1.5546,1.5555,1.5566,1.5571,1.5586,1.559,1.5597,1.5611,1.5616,1.5633,1.5635,1.5654,1.5653,1.565,1.565,1.566,1.5659,1.5694,1.5699,1.5672,1.5672,1.5672,0,1.5508,1.5521,1.5534,1.5542,1.5549,1.5562,1.557,1.5574,1.5583,1.5596,1.5605,1.5618,1.563,1.5651,1.5658,1.567,1.567,1.5681,1.5672,1.567,1.5669,1.5668,1.5669,1.5683,1.5683,1.5683,1.5684,0,1.5537,1.5539,1.5551,1.5564,1.5574,1.5585,1.5595,1.5601,1.5607,1.5616,1.563,1.5639,1.5656,1.5669,1.5681,1.5687,1.5686,1.5686,1.5689,1.5689,1.5686,1.5687,1.5654,1.5686,1.5685,1.5685,1.5685,1.5685,1.5556,1.5567,1.5577,1.5591,1.5598,1.5608,1.5618,1.5624,1.5636,1.565,1.5651,1.5666,1.5675,1.5692,1.5698,1.5709,1.5706,1.5711,1.5712,1.5713,1.5713,1.5684,1.5712,1.5712,1.5712,1.5712,1.5712,0,1.5584,1.559,1.5602,1.5616,1.5627,1.5625,1.5636,1.5644,1.5657,1.5666,1.5677,1.5692,1.5705,1.5712,1.5724,1.5732,1.5731,1.5735,1.5734,1.5735,1.5716,1.5712,1.5735,1.5735,1.5735,1.5735,1.5735,1.5735,1.5599,1.5617,1.562,1.5641,1.5647,1.5662,1.5668,1.5676,1.5683,1.57,1.5711,1.5715,1.5723,1.5736,1.5747,1.5748,1.5753,1.5756,1.5757,1.5739,1.5737,1.5734,1.573,1.5757,1.5757,1.5776,1.5776,1.5776]}]]